Details for Ryanair at EYKA




Go Back


Latest METAR
Local Time

EYKA 181350Z 24006KT 200V280 CAVOK 24/10 Q1018
18/09/2018, 17:18:08

Description
Results
Ryanair Logo
Number of Pilots based at EYKA
0 Pilots Based here
Number of Ryanair Flights Departed from EYKA
1 Flights Departed
Number of Ryanair Flights Arrived at EYKA
1 Flights Arrived
Number of Ryanair Schedules Departing from EYKA
21 Schedules
Number of Ryanair Schedules Arriving at EYKA
22 Schedules
Number of Ryanair Schedules Departing from EYKA availible today
7 Schedules Today
Number of Ryanair Schedules Arriving at EYKA availible today
7 Schedules Today
Average Landing Rate at EYKA
-173 fpm
Ryanair Average Landing Rate at EYKA
-288 fpm
Total Fuel Purchased at EYKA by Ryanair
8,029.04 kgs / 17,700.82 lbs

Pilots Based at EYKA


Pilot ID
Pilot Name
Pilot Rank
No. of Flights
No. of Flying Hours
There are no pilots assigned to this hub!   Will you be the first?
Content